Weather WX

World > North America > United States > Mississippi

Sherman, Mississippi Regional Weather

Lat: 34.36N, Lon: 88.84W
Wx Zone: MSZ015
Feedback

Sherman, MS Regional Weather

Expires:201906242200;;019964
ASUS44 KJAN 242110
RWRMS 

MISSISSIPPI HOURLY WEATHER ROUNDUP
NATIONAL WEATHER SERVICE JACKSON MS
400 PM CDT MON JUN 24 2019

NOTE: "FAIR: INDICATES FEW OR NO CLOUDS BELOW 12,000 FEET WITH NO
SIGNIFICANT WEATHER AND/OR OBSTRUCTIONS TO VISIBILITY.


MSZ003>006-009-014>017-022>024-029>033-037>039-242200-
NORTHEAST MISSISSIPPI
  
CITY           SKY/WX    TMP DP  RH WIND       PRES   REMARKS
ABERDEEN       FAIR      84  84 100 W8G15     29.92S FOG     HX 104   
COLUMBUS AFB   FAIR      86  69  55 SW10      29.91S HX  90           
CORINTH        FAIR      82  66  57 SW8G16    29.89F                  
GOLDN TRIANGLE FAIR      86  69  56 W9G17     29.93S HX  90           
STARKVILLE     FAIR      86  68  54 W7        29.93F                  
TUPELO         FAIR      87  69  54 SW10      29.90S HX  91           
$$


SKY/WX - Weather  TMP - Temperature  DP - Dew Point  RH - Relative Humidity
WIND - Wind Direction/Speed PRES - Barometric Pressure VSB - Visibility
WCI - Wind Chill Index E13G22 Wind - East Wind 13 mph/Gusts of 22 mph